Chatham, MA

2:57 AM EDT on May 23, 2018 (GMT -0400)
Chatham Municipal

Weather History for KCQX - December, 2013

Change the Weather History Date:

Monday, December 2, 2013

  Actual Average Record
Temperature  
Mean Temperature 42 °F -  
Max Temperature 46 °F 44 °F 59 °F (2006)
Min Temperature 39 °F 32 °F 17 °F (1989)
Degree Days  
Heating Degree Days 22    
Moisture  
Dew Point 41 °F    
Average Humidity 93    
Maximum Humidity 100    
Minimum Humidity 82    
Precipitation  
Precipitation 0.00 in - - ()
Sea Level Pressure  
Sea Level Pressure 29.96 in    
Wind  
Wind Speed 3 mph (NW)    
Max Wind Speed 7 mph    
Max Gust Speed -    
Visibility 5 miles    
Events Fog    
Averages and records for this station are not official NWS values.
T = Trace of Precipitation, MM = Missing Value Source: NWS Daily Summary

Daily Weather History Graph

Daily Weather History Graph

Search for Another Location

Airport or City:

Astronomy

Dec. 02, 2013 Rise Set
Actual Time 6:48 AM EST 4:10 PM EST
Civil Twilight 6:17 AM EST 4:41 PM EST
Nautical Twilight 5:43 AM EST 5:15 PM EST
Astronomical Twilight 5:09 AM EST 5:49 PM EST
Moon 6:09 AM EST (12/2) 4:10 PM EST (12/2)
Length of Visible Light 10h 23m
Length of Day
9h 21m
Waning Crescent, 0% of the Moon is Illuminated
Dec 2
Waning Crescent
Dec 2
New
Dec 9
First Quarter
Dec 17
Full
Dec 25
Last Quarter

Hourly Weather History & Observations

Time (EST) Temp. Windchill Dew Point Humidity Pressure Visibility Wind Dir Wind Speed Gust Speed Precip Events Conditions
12:10 AM 46.9 °F - 46.0 °F 97% 29.97 in 4.0 mi Calm Calm - N/A   Overcast
12:21 AM 46.9 °F - 46.0 °F 97% 29.96 in 1.8 mi Calm Calm - N/A   Overcast
12:32 AM 46.0 °F - 45.0 °F 96% 29.96 in 0.5 mi Calm Calm - N/A Fog Fog
12:39 AM 46.0 °F - 45.0 °F 96% 29.96 in 0.2 mi Calm Calm - N/A Fog Fog
12:52 AM 46.0 °F 44.8 °F 44.1 °F 93% 29.97 in 0.2 mi WNW 3.5 mph - N/A Fog Fog
1:03 AM 46.0 °F - 45.0 °F 96% 29.96 in 0.5 mi Calm Calm - N/A Fog Fog
1:52 AM 46.0 °F 42.5 °F 44.1 °F 93% 29.98 in 1.0 mi NW 6.9 mph - N/A   Mist
2:52 AM 43.0 °F 39.5 °F 42.1 °F 97% 29.97 in 1.2 mi NW 5.8 mph - N/A   Overcast
3:52 AM 43.0 °F 40.3 °F 42.1 °F 97% 29.97 in 1.2 mi NW 4.6 mph - N/A   Overcast
4:52 AM 44.1 °F 41.5 °F 43.0 °F 96% 29.97 in 1.0 mi Variable 4.6 mph - N/A   Overcast
5:11 AM 44.1 °F 41.5 °F 43.0 °F 96% 29.96 in 0.8 mi NW 4.6 mph - N/A   Mist
5:19 AM 44.1 °F 42.5 °F 43.0 °F 96% 29.96 in 1.0 mi Variable 3.5 mph - N/A   Overcast
5:50 AM 42.8 °F 40.1 °F 42.8 °F 100% 29.97 in 3.0 mi Variable 4.6 mph - N/A   Overcast
5:51 AM 43.0 °F 40.3 °F 42.1 °F 97% 29.98 in 3.0 mi Variable 4.6 mph - N/A   Overcast
6:22 AM 43.0 °F 41.3 °F 42.1 °F 97% 29.97 in 2.5 mi Variable 3.5 mph - N/A   Overcast
6:32 AM 43.0 °F 41.3 °F 42.1 °F 97% 29.97 in 3.0 mi Variable 3.5 mph - N/A   Overcast
6:39 AM 43.0 °F 41.3 °F 42.1 °F 97% 29.97 in 2.0 mi Variable 3.5 mph - N/A   Overcast
6:52 AM 43.0 °F - 42.1 °F 97% 29.98 in 2.5 mi Calm Calm - N/A   Overcast
7:14 AM 42.1 °F 38.4 °F 41.0 °F 96% 29.97 in 1.2 mi Variable 5.8 mph - N/A   Overcast
7:52 AM 42.1 °F 40.2 °F 41.0 °F 96% 29.98 in 2.0 mi North 3.5 mph - N/A   Overcast
8:07 AM 42.1 °F 38.4 °F 41.0 °F 96% 29.97 in 3.0 mi North 5.8 mph - N/A   Overcast
8:52 AM 42.1 °F 39.2 °F 41.0 °F 96% 29.98 in 9.0 mi Variable 4.6 mph - N/A   Overcast
9:52 AM 43.0 °F 41.3 °F 41.0 °F 93% 29.98 in 4.0 mi Variable 3.5 mph - N/A   Overcast
10:00 AM 43.0 °F 39.5 °F 41.0 °F 93% 29.97 in 8.0 mi NNW 5.8 mph - N/A   Overcast
10:52 AM 43.0 °F 40.3 °F 41.0 °F 93% 29.97 in 10.0 mi Variable 4.6 mph - N/A   Overcast
11:52 AM 44.1 °F 40.1 °F 41.0 °F 89% 29.95 in 10.0 mi Variable 6.9 mph - N/A   Overcast
12:52 PM 44.1 °F 41.5 °F 39.9 °F 85% 29.94 in 10.0 mi Variable 4.6 mph - N/A   Overcast
1:52 PM 44.1 °F 41.5 °F 39.0 °F 82% 29.93 in 10.0 mi Variable 4.6 mph - N/A   Overcast
2:52 PM 42.1 °F 37.7 °F 39.0 °F 89% 29.93 in 10.0 mi NNW 6.9 mph - N/A   Overcast
3:52 PM 42.1 °F 39.2 °F 37.9 °F 85% 29.95 in 10.0 mi NNW 4.6 mph - N/A   Overcast
4:52 PM 41.0 °F 38.0 °F 37.9 °F 89% 29.94 in 10.0 mi NNW 4.6 mph - N/A   Overcast
5:52 PM 39.9 °F - 37.0 °F 89% 29.95 in 10.0 mi Calm Calm - N/A   Overcast
6:52 PM 39.9 °F 36.7 °F 37.0 °F 89% 29.95 in 10.0 mi Variable 4.6 mph - N/A   Overcast
7:52 PM 39.9 °F 35.8 °F 37.0 °F 89% 29.95 in 10.0 mi Variable 5.8 mph - N/A   Overcast
8:52 PM 39.9 °F - 37.0 °F 89% 29.97 in 10.0 mi Calm Calm - N/A   Overcast
9:52 PM 39.0 °F 35.7 °F 36.0 °F 89% 29.94 in 10.0 mi NNW 4.6 mph - N/A   Overcast
10:52 PM 39.0 °F 36.8 °F 36.0 °F 89% 29.93 in 10.0 mi Variable 3.5 mph - N/A   Overcast
11:52 PM 39.0 °F 36.8 °F 37.0 °F 93% 29.90 in 10.0 mi Variable 3.5 mph - N/A   Overcast